Alliance, NE

5:19 PM MST on February 19, 2018 (GMT -0700)
Alliance Municipal

Weather History for KAIA - April, 2014

Change the Weather History Date:

Tuesday, April 1, 2014

  Actual Average Record
Temperature  
Mean Temperature 28 °F 41 °F  
Max Temperature 40 °F 56 °F 86 °F (2012)
Min Temperature 16 °F 27 °F 3 °F (1975)
Degree Days  
Heating Degree Days 37 24  
Month to date heating degree days 37 24  
Since 1 July heating degree days 6518 6310  
Cooling Degree Days 0 0  
Month to date cooling degree days 0 0  
Year to date cooling degree days 0 0  
Moisture  
Dew Point 21 °F    
Average Humidity 71    
Maximum Humidity 88    
Minimum Humidity 54    
Precipitation  
Precipitation T in 0.03 in 1.00 in (1905)
Month to date precipitation T 0.03  
Year to date precipitation 1.40 1.44  
Sea Level Pressure  
Sea Level Pressure 29.97 in    
Wind  
Wind Speed 13 mph (SE)    
Max Wind Speed 28 mph    
Max Gust Speed 33 mph    
Visibility 8 miles    
Events Snow    
T = Trace of Precipitation, MM = Missing Value Source: NWS Daily Summary

Daily Weather History Graph

Daily Weather History Graph

Search for Another Location

Airport or City:

Trip Planner

Search our weather history database for the weather conditions in past years. The results will help you decide how hot, cold, wet, or windy it might be!

Date:

Astronomy

Apr. 01, 2014 Rise Set
Actual Time 6:33 AM MDT 7:16 PM MDT
Civil Twilight 6:05 AM MDT 7:45 PM MDT
Nautical Twilight 5:32 AM MDT 8:18 PM MDT
Astronomical Twilight 4:57 AM MDT 8:53 PM MDT
Moon 7:35 AM MDT (4/1) 9:44 PM MDT (4/1)
Length of Visible Light 13h 39m
Length of Day
12h 43m
Waxing Crescent, 5% of the Moon is Illuminated
Apr 1
Waxing Crescent
Apr 7
First Quarter
Apr 15
Full
Apr 22
Last Quarter
Apr 29
New

Hourly Weather History & Observations

Time (MDT) Temp. Windchill Dew Point Humidity Pressure Visibility Wind Dir Wind Speed Gust Speed Precip Events Conditions
12:53 AM 19.0 °F 12.3 °F 14.0 °F 81% 30.11 in 10.0 mi NE 4.6 mph - N/A   Clear
1:53 AM 17.1 °F 5.0 °F 12.9 °F 84% 30.13 in 10.0 mi SW 10.4 mph - N/A   Partly Cloudy
2:53 AM 19.0 °F 11.1 °F 14.0 °F 81% 30.11 in 10.0 mi SW 5.8 mph - N/A   Clear
3:53 AM 21.0 °F 14.6 °F 17.1 °F 85% 30.08 in 10.0 mi NNE 4.6 mph - N/A   Overcast
4:53 AM 21.9 °F 14.5 °F 17.1 °F 82% 30.04 in 10.0 mi ENE 5.8 mph - N/A   Overcast
5:48 AM 21.2 °F 11.7 °F 17.6 °F 86% 29.96 in 2.0 mi SSE 8.1 mph - 0.00 in Snow Light Snow
5:53 AM 21.9 °F 12.5 °F 19.0 °F 89% 30.05 in 2.0 mi SSE 8.1 mph - 0.00 in Snow Light Snow
6:15 AM 21.9 °F 14.5 °F 19.9 °F 92% 29.96 in 1.8 mi SE 5.8 mph - 0.00 in Snow Light Snow
6:30 AM 21.9 °F 13.4 °F 19.9 °F 92% 29.95 in 2.0 mi ESE 6.9 mph - 0.00 in Snow Light Snow
6:40 AM 23.0 °F 14.7 °F 19.9 °F 88% 29.94 in 1.5 mi ESE 6.9 mph - 0.00 in Snow Light Snow
6:53 AM 23.0 °F 13.9 °F 19.9 °F 88% 30.03 in 1.2 mi East 8.1 mph - 0.00 in Snow Light Snow
6:58 AM 23.0 °F 13.1 °F 19.9 °F 88% 29.93 in 2.0 mi East 9.2 mph - 0.00 in Snow Light Snow
7:00 AM 23.0 °F 12.4 °F 19.9 °F 88% 29.93 in 4.0 mi ESE 10.4 mph - 0.00 in Snow Light Snow
7:53 AM 23.0 °F 12.4 °F 19.9 °F 88% 30.05 in 10.0 mi SE 10.4 mph - 0.00 in   Overcast
8:12 AM 24.1 °F 14.4 °F 21.0 °F 88% 29.94 in 10.0 mi ESE 9.2 mph - N/A   Overcast
8:53 AM 25.0 °F 14.2 °F 21.0 °F 85% 30.04 in 10.0 mi SE 11.5 mph - N/A   Overcast
9:53 AM 27.0 °F 15.2 °F 21.9 °F 81% 30.01 in 10.0 mi SE 15.0 mph - N/A   Overcast
10:53 AM 30.0 °F 19.1 °F 23.0 °F 75% 29.98 in 10.0 mi SE 15.0 mph - N/A   Mostly Cloudy
11:53 AM 30.9 °F 19.8 °F 24.1 °F 76% 29.97 in 10.0 mi SE 16.1 mph - N/A   Overcast
12:53 PM 33.1 °F 22.6 °F 25.0 °F 72% 29.96 in 10.0 mi ESE 16.1 mph - N/A   Overcast
1:53 PM 36.0 °F 24.7 °F 26.1 °F 67% 29.91 in 10.0 mi ESE 21.9 mph 27.6 mph N/A   Mostly Cloudy
2:53 PM 37.9 °F 26.8 °F 27.0 °F 65% 29.88 in 10.0 mi ESE 24.2 mph 29.9 mph N/A   Partly Cloudy
3:53 PM 37.9 °F 27.3 °F 26.1 °F 62% 29.88 in 10.0 mi ESE 21.9 mph - N/A   Clear
4:53 PM 37.9 °F 27.9 °F 26.1 °F 62% 29.87 in 10.0 mi ESE 19.6 mph - N/A   Clear
5:53 PM 39.9 °F 30.0 °F 25.0 °F 55% 29.88 in 10.0 mi SE 21.9 mph 27.6 mph N/A   Clear
6:53 PM 37.9 °F 29.6 °F 25.0 °F 60% 29.88 in 10.0 mi ESE 13.8 mph - N/A   Clear
7:53 PM 33.1 °F 26.1 °F 25.0 °F 72% 29.93 in 10.0 mi ESE 8.1 mph - N/A   Clear
8:53 PM 34.0 °F 23.8 °F 24.1 °F 67% 29.91 in 10.0 mi SE 16.1 mph - N/A   Partly Cloudy
9:53 PM 33.1 °F 23.4 °F 24.1 °F 70% 29.93 in 10.0 mi SE 13.8 mph - N/A   Clear
10:53 PM 30.9 °F 22.2 °F 23.0 °F 72% 29.92 in 10.0 mi SE 10.4 mph - N/A   Clear
11:53 PM 30.9 °F 24.3 °F 24.1 °F 76% 29.93 in 10.0 mi SE 6.9 mph - N/A   Clear